[[{"header":{"parameterUnit":"m.s-1","parameterCategory":1,"la1":30.2991,"la2":30.254,"lo1":-89.0895,"lo2":-89.0444,"dy":0.0017,"dx":0.0017,"nx":28,"ny":28,"refTime":"2025-08-22T21:00:00:Z","depth":0,"parameterNumber":2,"parameterNumberName":"U-component_of_WINDS"},"data":[0,0,0,0,0,0,0,0,0,0,0,0,0,0,0,0,0,0,0,0,0,0,0,0,0,0,0,0,0,0,0,0,0,0,0,0,0,0,0,0,0,0,0,0,0,0,0,0,0,0,0,0,0,0,0,0,0,0,-1.9035,-1.9035,0,-1.9052,-1.9052,-1.9052,-1.9038,-1.9038,-1.9037,-1.9037,-1.9053,-1.9054,-1.9054,0,0,0,0,0,0,0,0,0,0,0,0,0,-1.8989,-1.8989,-1.9035,-1.9035,-1.9035,-1.9052,-1.9052,-1.9052,-1.9039,-1.9038,-1.9037,-1.9036,-1.9052,-1.9053,-1.9055,0,0,0,0,0,0,0,0,0,0,0,0,0,-1.9007,-1.899,-1.9035,-1.903,-1.903,-1.9052,-1.9052,-1.9052,-1.9039,-1.9038,-1.9037,-1.9036,-1.9052,-1.9053,-1.9055,-1.9081,0,0,-1.9059,-1.906,0,0,0,0,0,0,0,0,-1.9006,-1.9009,-1.9031,-1.9031,-1.903,-1.9042,-1.9041,-1.9062,-1.9039,-1.9035,-1.9037,-1.9036,-1.905,-1.9051,-1.9056,-1.9082,-1.9082,-1.9059,-1.906,-1.9061,-1.9061,0,0,0,0,0,0,0,-1.9005,-1.9008,-1.9041,-1.9031,-1.9031,-1.9027,-1.9029,-1.9045,-1.9047,-1.9036,-1.9035,-1.9037,-1.9049,-1.9055,-1.9057,-1.9083,-1.9059,-1.906,-1.9061,-1.9062,-1.913,-1.9131,0,0,0,0,0,0,-1.9004,-1.9007,-1.9041,-1.9042,-1.9016,-1.9029,-1.903,-1.9039,-1.9047,-1.9047,-1.9038,-1.9036,-1.9053,-1.9055,-1.9057,-1.9088,-1.9061,-1.9062,-1.9063,-1.9129,-1.913,-1.9131,0,0,0,0,0,0,-1.9003,-1.9007,-1.904,-1.9024,-1.9028,-1.903,-1.904,-1.904,-1.9045,-1.9048,-1.9049,-1.9043,-1.9052,-1.9055,-1.9075,-1.9088,-1.9063,-1.9064,-1.9128,-1.9129,-1.9131,-1.915,0,0,0,0,0,0,-1.9002,-1.9007,-1.9017,-1.9025,-1.9029,-1.9058,-1.9041,-1.9041,-1.9048,-1.9046,-1.9054,-1.9054,-1.9052,-1.9073,-1.9077,-1.909,-1.9065,-1.9127,-1.9128,-1.913,-1.9148,-1.9152,-1.9155,0,0,0,0,0,-1.9001,-1.9022,-1.9018,-1.9022,-1.9042,-1.9059,-1.9061,-1.9059,-1.9049,-1.9059,-1.9061,-1.9054,-1.9086,-1.9075,-1.9079,-1.9093,-1.9126,-1.9128,-1.913,-1.9146,-1.9151,-1.9155,0,0,0,0,0,0,-1.9015,-1.9023,-1.9019,-1.9043,-1.9051,-1.9057,-1.9069,-1.9064,-1.9074,-1.9072,-1.9068,-1.907,-1.9091,-1.9094,-1.9081,-1.9118,-1.9104,-1.9107,-1.9116,-1.912,-1.9123,-1.9122,-1.9066,0,0,0,0,0,-1.9022,-1.9036,-1.9041,-1.9062,-1.9066,-1.9067,-1.9074,-1.9072,-1.908,-1.9082,-1.9086,-1.9093,-1.9105,-1.9113,-1.9124,-1.9149,-1.915,-1.916,-1.9163,-1.9166,-1.9169,-1.9181,-1.9186,-1.9138,-1.9138,-1.9138,0,0,-1.9034,-1.904,-1.9049,-1.9065,-1.9071,-1.9084,-1.907,-1.9085,-1.9095,-1.9085,-1.9104,-1.9107,-1.9114,-1.9137,-1.9147,-1.914,-1.9182,-1.9169,-1.9171,-1.9172,-1.9184,-1.9189,-1.9193,-1.9139,-1.9139,-1.9139,0,0,-1.9065,-1.9071,-1.9089,-1.9095,-1.9104,-1.9104,-1.9109,-1.9116,-1.9118,-1.9137,-1.9129,-1.9141,-1.9162,-1.9167,-1.9173,-1.9206,-1.9199,-1.921,-1.9227,-1.924,-1.9244,-1.9247,-1.9258,-1.9262,-1.9212,-1.9212,-1.9212,0,-1.9079,-1.91,-1.9098,-1.9114,-1.9121,-1.9113,-1.9131,-1.9137,-1.9149,-1.9154,-1.9146,-1.9172,-1.9177,-1.92,-1.9208,-1.9213,-1.9218,-1.9208,-1.9243,-1.9247,-1.925,-1.926,-1.9265,-1.9214,-1.9213,-1.9213,-1.9213,0,-1.9117,-1.9132,-1.9145,-1.9158,-1.9166,-1.9183,-1.9183,-1.9192,-1.9189,-1.9191,-1.921,-1.9216,-1.9228,-1.9234,-1.9231,-1.9257,-1.9252,-1.9244,-1.923,-1.9256,-1.9265,-1.9269,-1.9215,-1.9215,-1.9214,-1.9214,0,0,-1.9156,-1.9168,-1.9173,-1.9178,-1.9188,-1.9199,-1.9215,-1.9228,-1.9235,-1.9244,-1.9257,-1.9275,-1.9268,-1.9274,-1.9272,-1.9283,-1.9308,-1.9274,-1.9274,-1.9279,-1.9336,-1.9342,-1.9346,-1.9304,-1.9305,-1.9305,-1.9336,0,-1.9186,-1.9215,-1.9214,-1.9241,-1.9254,-1.9247,-1.9261,-1.9269,-1.9271,-1.9282,-1.9284,-1.9296,-1.9286,-1.929,-1.9301,-1.9303,-1.9319,-1.9301,-1.9315,-1.9316,-1.9313,-1.9352,-1.9357,-1.9385,-1.9339,-1.934,-1.9341,0,-1.9225,-1.9236,-1.9264,-1.9271,-1.9277,-1.929,-1.9301,-1.9312,-1.932,-1.932,-1.9328,-1.9324,-1.934,-1.9326,-1.9348,-1.9335,-1.9341,-1.9343,-1.9344,-1.9345,-1.9329,-1.9352,-1.9394,-1.9398,-1.9347,-1.9346,-1.9346,0,-1.925,-1.9271,-1.9291,-1.9296,-1.9305,-1.9314,-1.9319,-1.9326,-1.9333,-1.9343,-1.9348,-1.9359,-1.9365,-1.9374,-1.9373,-1.9363,-1.9395,-1.9381,-1.9395,-1.9395,-1.9401,-1.9401,-1.9444,-1.9407,-1.9407,-1.9407,-1.9407,0,-1.9283,-1.93,-1.9302,-1.9314,-1.9333,-1.9332,-1.9351,-1.9354,-1.936,-1.9372,-1.9367,-1.9379,-1.9377,-1.9388,-1.9388,-1.9406,-1.9409,-1.9409,-1.9408,-1.9409,-1.9409,-1.9412,-1.941,-1.9408,-1.9407,-1.9407,-1.9407,0,-1.9313,-1.9315,-1.9336,-1.9344,-1.9346,-1.936,-1.9366,-1.9377,-1.9379,-1.9394,-1.9398,-1.94,-1.9413,-1.9414,-1.9429,-1.9428,-1.945,-1.9447,-1.9447,-1.9446,-1.946,-1.9459,-1.9506,-1.9512,-1.9472,-1.9472,-1.9473,0,-1.9334,-1.9347,-1.9357,-1.9365,-1.937,-1.9383,-1.939,-1.939,-1.9398,-1.9408,-1.9418,-1.9431,-1.9441,-1.9462,-1.9465,-1.9476,-1.9473,-1.9489,-1.9475,-1.9475,-1.9473,-1.9472,-1.9473,-1.9492,-1.9492,-1.9493,-1.9493,0,-1.937,-1.9371,-1.9382,-1.9395,-1.9404,-1.9414,-1.9422,-1.9429,-1.9429,-1.9439,-1.9452,-1.946,-1.9476,-1.9488,-1.9499,-1.9503,-1.9498,-1.9498,-1.9501,-1.9501,-1.9501,-1.9501,-1.9454,-1.9496,-1.9496,-1.9496,-1.9495,-1.9495,-1.9396,-1.9407,-1.9416,-1.9429,-1.9436,-1.9444,-1.9455,-1.9458,-1.947,-1.9482,-1.9481,-1.9496,-1.9504,-1.9518,-1.9523,-1.9534,-1.9529,-1.9534,-1.9535,-1.9537,-1.9538,-1.95,-1.9536,-1.9536,-1.9536,-1.9536,-1.9536,0,-1.9431,-1.9437,-1.9449,-1.9461,-1.9472,-1.9467,-1.9476,-1.9485,-1.9498,-1.9506,-1.9516,-1.9532,-1.9544,-1.9548,-1.956,-1.9568,-1.9566,-1.9571,-1.957,-1.9571,-1.9542,-1.9538,-1.9572,-1.9572,-1.9572,-1.9572,-1.9572,-1.9572,-1.9451,-1.947,-1.9471,-1.9493,-1.9498,-1.9513,-1.9519,-1.9526,-1.9533,-1.955,-1.956,-1.9563,-1.9569,-1.9581,-1.9592,-1.9593,-1.9597,-1.9603,-1.9603,-1.9576,-1.9573,-1.9569,-1.9565,-1.9604,-1.9604,-1.963,-1.963,-1.9631]},{"header":{"parameterUnit":"m.s-1","parameterCategory":1,"la1":30.2991,"la2":30.254,"lo1":-89.0895,"lo2":-89.0444,"dy":0.0017,"dx":0.0017,"nx":28,"ny":28,"refTime":"2025-08-22T21:00:00:Z","depth":0,"parameterNumber":3,"parameterNumberName":"V-component_of_WINDS"},"data":[0,0,0,0,0,0,0,0,0,0,0,0,0,0,0,0,0,0,0,0,0,0,0,0,0,0,0,0,0,0,0,0,0,0,0,0,0,0,0,0,0,0,0,0,0,0,0,0,0,0,0,0,0,0,0,0,0,0,1.3284,1.3284,0,1.3281,1.3281,1.3281,1.3244,1.3243,1.3242,1.3241,1.3239,1.324,1.3241,0,0,0,0,0,0,0,0,0,0,0,0,0,1.3258,1.3258,1.3284,1.3284,1.3284,1.3281,1.3281,1.3281,1.3244,1.3243,1.3242,1.3241,1.3239,1.324,1.3241,0,0,0,0,0,0,0,0,0,0,0,0,0,1.3263,1.3258,1.3284,1.3265,1.3264,1.3281,1.3281,1.3281,1.3245,1.3243,1.3242,1.324,1.3238,1.324,1.3241,1.3277,0,0,1.3244,1.3245,0,0,0,0,0,0,0,0,1.3263,1.3264,1.3268,1.3267,1.3265,1.3262,1.3271,1.328,1.3245,1.3252,1.3241,1.324,1.3248,1.3248,1.3251,1.3276,1.3276,1.3245,1.3245,1.3246,1.3246,0,0,0,0,0,0,0,1.3263,1.3264,1.3283,1.3268,1.3266,1.3257,1.3256,1.3273,1.3258,1.3251,1.3248,1.3249,1.3246,1.325,1.325,1.3276,1.3245,1.3246,1.3246,1.3247,1.3331,1.3332,0,0,0,0,0,0,1.3265,1.3264,1.3283,1.3283,1.326,1.3259,1.3258,1.3264,1.3257,1.3255,1.325,1.3247,1.3248,1.3249,1.325,1.3291,1.3246,1.3247,1.3248,1.3329,1.3331,1.3333,0,0,0,0,0,0,1.3265,1.3267,1.3283,1.3273,1.3274,1.3261,1.3268,1.3265,1.3268,1.3256,1.3254,1.3256,1.3247,1.3248,1.327,1.329,1.3247,1.3249,1.3327,1.333,1.3332,1.3373,0,0,0,0,0,0,1.3264,1.3267,1.328,1.3273,1.3275,1.3303,1.3269,1.3266,1.327,1.3266,1.3261,1.3259,1.3246,1.3268,1.3271,1.3291,1.325,1.3325,1.3328,1.3331,1.3369,1.3376,1.3382,0,0,0,0,0,1.3263,1.3292,1.3281,1.3284,1.3291,1.3304,1.3305,1.329,1.3272,1.3285,1.3278,1.3259,1.3288,1.3271,1.3274,1.3294,1.3324,1.3328,1.3331,1.3367,1.3375,1.3381,0,0,0,0,0,0,1.3302,1.3291,1.3279,1.3306,1.3307,1.3298,1.3314,1.3299,1.3304,1.33,1.3281,1.328,1.3305,1.3302,1.3283,1.3328,1.3303,1.3307,1.3329,1.3336,1.3342,1.3342,1.3251,0,0,0,0,0,1.3314,1.3325,1.3315,1.3341,1.3341,1.3328,1.3333,1.3321,1.3321,1.3321,1.3315,1.3315,1.3324,1.333,1.3338,1.3369,1.3367,1.3385,1.3391,1.3396,1.3399,1.3415,1.3422,1.3344,1.3344,1.3343,0,0,1.3338,1.3334,1.3342,1.3348,1.3347,1.3359,1.3328,1.3343,1.3351,1.3323,1.3342,1.3339,1.3338,1.3364,1.3375,1.3362,1.3421,1.34,1.3404,1.3405,1.3419,1.3426,1.3433,1.3346,1.3345,1.3345,0,0,1.3389,1.3387,1.3407,1.3407,1.3405,1.3396,1.3401,1.3395,1.3391,1.3411,1.339,1.34,1.3416,1.3416,1.3418,1.3469,1.3452,1.3472,1.3504,1.3519,1.3525,1.353,1.3547,1.3554,1.3476,1.3476,1.3476,0,1.3419,1.3437,1.342,1.3436,1.3439,1.3414,1.3434,1.3434,1.3436,1.3438,1.3424,1.3443,1.3441,1.3466,1.3479,1.3482,1.3487,1.3472,1.3526,1.3531,1.3536,1.3552,1.3558,1.3478,1.3478,1.3478,1.3478,0,1.3474,1.3486,1.3503,1.3504,1.351,1.3528,1.3514,1.3521,1.3509,1.3502,1.3522,1.3518,1.3524,1.353,1.3519,1.3554,1.3546,1.3529,1.3503,1.3546,1.356,1.3566,1.3482,1.3481,1.348,1.348,0,0,1.3547,1.354,1.3546,1.3546,1.3543,1.3552,1.3569,1.3575,1.3581,1.3583,1.3596,1.3611,1.3595,1.3598,1.3586,1.36,1.3639,1.3581,1.3581,1.3591,1.3677,1.3688,1.3696,1.3628,1.3629,1.363,1.3676,0,1.3595,1.3623,1.3609,1.3638,1.3649,1.3626,1.3641,1.364,1.3634,1.3642,1.3636,1.3646,1.3625,1.3626,1.3639,1.3631,1.3656,1.3628,1.364,1.364,1.3639,1.3704,1.3716,1.3759,1.3682,1.3683,1.3684,0,1.3654,1.3658,1.3689,1.3683,1.3687,1.37,1.3704,1.3713,1.3712,1.3706,1.3709,1.3695,1.3711,1.3686,1.3708,1.3689,1.3693,1.3691,1.3692,1.3691,1.3664,1.3703,1.3773,1.3779,1.3693,1.3692,1.3691,0,1.3703,1.3716,1.3736,1.3737,1.3731,1.3741,1.3739,1.3737,1.3741,1.3745,1.3748,1.3754,1.3757,1.3762,1.3749,1.3732,1.3772,1.3746,1.3767,1.3767,1.3775,1.3775,1.3845,1.3781,1.3781,1.378,1.378,0,1.3757,1.3776,1.3758,1.377,1.3791,1.3775,1.3796,1.3792,1.379,1.3801,1.3782,1.3792,1.3775,1.3784,1.3775,1.3794,1.3796,1.3791,1.3788,1.3792,1.3792,1.3793,1.3789,1.3782,1.3782,1.3781,1.3781,0,1.3814,1.3803,1.3823,1.3816,1.3815,1.383,1.3824,1.3835,1.3828,1.3842,1.3844,1.3832,1.3842,1.383,1.3839,1.3832,1.3857,1.3851,1.3858,1.3855,1.3876,1.3874,1.3949,1.3957,1.3888,1.3889,1.389,0,1.3849,1.3863,1.3857,1.3863,1.3862,1.3872,1.3876,1.3861,1.3866,1.3866,1.3877,1.3885,1.389,1.3906,1.3899,1.3905,1.3898,1.3923,1.3898,1.3902,1.3896,1.3895,1.3896,1.3928,1.3929,1.393,1.393,0,1.391,1.3904,1.3911,1.3916,1.3921,1.3924,1.3926,1.3932,1.3916,1.3923,1.3932,1.3937,1.3945,1.3953,1.3957,1.3955,1.394,1.3938,1.3943,1.3947,1.3949,1.3947,1.387,1.3936,1.3936,1.3935,1.3935,1.3935,1.3956,1.3968,1.3965,1.3973,1.3973,1.3975,1.3985,1.3978,1.3986,1.3991,1.3982,1.3994,1.3993,1.3997,1.3997,1.4005,1.3994,1.4002,1.4003,1.4005,1.4008,1.3949,1.4006,1.4006,1.4006,1.4006,1.4006,0,1.4016,1.4013,1.4021,1.4023,1.403,1.4015,1.4016,1.4023,1.4033,1.4033,1.4039,1.4049,1.4057,1.405,1.4056,1.4064,1.4057,1.4066,1.4065,1.4064,1.4018,1.4012,1.4072,1.4072,1.4072,1.4072,1.4072,1.4072,1.4047,1.4065,1.4059,1.4076,1.4074,1.4084,1.4086,1.4088,1.4088,1.41,1.4106,1.4102,1.4099,1.4105,1.4111,1.4109,1.4112,1.4123,1.4118,1.4074,1.4068,1.4062,1.4056,1.4124,1.4124,1.4164,1.4164,1.4164]}]]